TimeCDT,TemperatureF,Dew PointF,Humidity,Sea Level PressureIn,VisibilityMPH,Wind Direction,Wind SpeedMPH,Gust SpeedMPH,PrecipitationIn,Events,Conditions,WindDirDegrees,DateUTC
12:53 AM,62.1,60.1,93,29.97,10.0,Calm,Calm,-,N/A,,Clear,0,2013-09-27 05:53:00
1:53 AM,61.0,59.0,93,29.98,10.0,Calm,Calm,-,N/A,,Partly Cloudy,0,2013-09-27 06:53:00
2:53 AM,61.0,60.1,97,29.99,9.0,Calm,Calm,-,N/A,,Scattered Clouds,0,2013-09-27 07:53:00
3:53 AM,61.0,59.0,93,29.99,10.0,East,3.5,-,N/A,,Partly Cloudy,90,2013-09-27 08:53:00
4:53 AM,60.1,57.9,93,29.99,9.0,Calm,Calm,-,N/A,,Clear,0,2013-09-27 09:53:00
5:53 AM,60.1,59.0,96,30.01,5.0,Calm,Calm,-,N/A,,Clear,0,2013-09-27 10:53:00
6:53 AM,60.1,59.0,96,30.02,4.0,Calm,Calm,-,N/A,,Clear,0,2013-09-27 11:53:00
7:01 AM,59.0,57.2,94,30.05,1.8,Calm,Calm,-,N/A,,Clear,0,2013-09-27 12:01:00
7:10 AM,59.0,57.2,94,30.06,0.8,Calm,Calm,-,N/A,,Clear,0,2013-09-27 12:10:00
7:13 AM,59.0,57.2,94,30.06,1.0,Calm,Calm,-,N/A,,Mist,0,2013-09-27 12:13:00
7:32 AM,57.2,57.2,100,30.06,0.5,SE,4.6,-,N/A,Fog,Fog,140,2013-09-27 12:32:00
7:41 AM,59.0,57.2,94,30.06,0.2,SE,3.5,-,N/A,Fog,Fog,130,2013-09-27 12:41:00
7:53 AM,59.0,59.0,100,30.04,0.2,SE,3.5,-,0.01,Fog,Fog,140,2013-09-27 12:53:00
8:27 AM,60.8,60.8,100,30.07,0.8,SE,6.9,-,N/A,,Mist,140,2013-09-27 13:27:00
8:33 AM,60.8,60.8,100,30.07,2.0,SE,5.8,-,N/A,,Scattered Clouds,130,2013-09-27 13:33:00
8:42 AM,62.6,60.8,94,30.07,4.0,SE,6.9,-,N/A,,Partly Cloudy,140,2013-09-27 13:42:00
8:53 AM,62.1,61.0,96,30.05,6.0,SE,5.8,-,N/A,,Clear,140,2013-09-27 13:53:00
9:53 AM,71.1,63.0,75,30.05,10.0,SE,8.1,-,N/A,,Clear,140,2013-09-27 14:53:00
10:53 AM,78.1,63.0,60,30.05,10.0,SSE,10.4,17.3,N/A,,Clear,160,2013-09-27 15:53:00
11:53 AM,80.1,61.0,52,30.03,10.0,SSE,12.7,-,N/A,,Clear,150,2013-09-27 16:53:00
12:53 PM,82.0,61.0,49,30.01,10.0,SSE,11.5,18.4,N/A,,Clear,150,2013-09-27 17:53:00
1:53 PM,82.0,57.9,44,29.99,10.0,ESE,8.1,-,N/A,,Scattered Clouds,120,2013-09-27 18:53:00
2:53 PM,84.9,57.9,40,29.96,10.0,SSE,12.7,18.4,N/A,,Scattered Clouds,150,2013-09-27 19:53:00
3:53 PM,84.9,59.0,41,29.95,10.0,SSE,11.5,17.3,N/A,,Mostly Cloudy,150,2013-09-27 20:53:00
4:53 PM,80.1,57.9,47,29.95,10.0,SSE,12.7,-,N/A,,Partly Cloudy,160,2013-09-27 21:53:00
5:53 PM,80.1,57.9,47,29.96,10.0,SSE,11.5,-,N/A,,Clear,150,2013-09-27 22:53:00
6:53 PM,75.9,57.9,54,29.96,10.0,SSE,9.2,-,N/A,,Clear,150,2013-09-27 23:53:00
7:53 PM,70.0,59.0,68,29.97,10.0,SE,4.6,-,N/A,,Clear,140,2013-09-28 00:53:00
8:53 PM,68.0,59.0,73,29.98,10.0,SSE,4.6,-,N/A,,Clear,160,2013-09-28 01:53:00
9:53 PM,66.9,59.0,76,29.97,10.0,SSE,8.1,-,N/A,,Clear,150,2013-09-28 02:53:00
10:53 PM,68.0,61.0,78,29.97,10.0,SSE,8.1,-,N/A,,Clear,150,2013-09-28 03:53:00
11:53 PM,66.0,61.0,84,29.97,10.0,Calm,Calm,-,N/A,,Clear,0,2013-09-28 04:53:00